• In France
  • List of Countries
  • For 7 days
  • Water Temperature
  • Satellite Maps
  • Weather Map
  • Weather Widgets
  • user-avatar
    Login

    Hourly Weather Saitkulovo

    Today, 18 September, Tuesday

    Time Temperature Precipitation Wind Pressure Humidity
    00:00 +14°C° 0 mm 2 mps 712 mmHg 56%
    01:00 +14°C° 0 mm 2 mps 712 mmHg 57%
    02:00 +14°C° 0 mm 2 mps 712 mmHg 57%
    03:00 +14°C° 0 mm 1 mps 712 mmHg 57%
    04:00 +14°C° 0 mm 1 mps 712 mmHg 56%
    05:00 +14°C° 0 mm 1 mps 712 mmHg 57%
    06:00 +14°C° 0 mm 2 mps 712 mmHg 57%
    07:00 +15°C° 0 mm 2 mps 712 mmHg 58%
    08:00 +16°C° 0 mm 3 mps 712 mmHg 55%
    09:00 +18°C° 0 mm 4 mps 712 mmHg 51%
    10:00 +20°C° 0 mm 5 mps 712 mmHg 46%
    11:00 +20°C° 0 mm 5 mps 712 mmHg 47%
    12:00 +20°C° 0 mm 5 mps 711 mmHg 49%
    13:00 +20°C° 0 mm 4 mps 711 mmHg 50%
    14:00 +20°C° 0 mm 4 mps 711 mmHg 50%
    15:00 +20°C° 0 mm 5 mps 710 mmHg 50%
    16:00 +20°C° 0 mm 5 mps 710 mmHg 51%
    17:00 +18°C° 0 mm 4 mps 709 mmHg 55%
    18:00 +17°C° 0 mm 4 mps 709 mmHg 59%
    19:00 +16°C° 0 mm 3 mps 708 mmHg 63%
    20:00 +14°C° 0 mm 3 mps 707 mmHg 62%
    21:00 +13°C° 0 mm 3 mps 707 mmHg 61%
    22:00 +13°C° 0 mm 3 mps 706 mmHg 60%
    23:00 +12°C° 0.1 mm 3 mps 706 mmHg 61%

    Tomorrow, 19 September, Wednesday

    Time Temperature Precipitation Wind Pressure Humidity
    00:00 +12°C° 0.1 mm 3 mps 705 mmHg 63%
    01:00 +12°C° 0.1 mm 3 mps 705 mmHg 65%
    02:00 +13°C° 0.4 mm 2 mps 704 mmHg 73%
    03:00 +12°C° 0.4 mm 2 mps 704 mmHg 80%
    04:00 +12°C° 0.4 mm 2 mps 703 mmHg 88%
    05:00 +10°C° 0 mm 2 mps 703 mmHg 89%
    06:00 +10°C° 0 mm 3 mps 703 mmHg 90%
    07:00 +10°C° 0 mm 4 mps 703 mmHg 91%
    08:00 +11°C° 0.1 mm 4 mps 703 mmHg 88%
    09:00 +10°C° 0.1 mm 5 mps 703 mmHg 85%
    10:00 +12°C° 0.1 mm 5 mps 703 mmHg 82%
    11:00 +12°C° 0.1 mm 5 mps 703 mmHg 80%
    12:00 +10°C° 0.1 mm 5 mps 703 mmHg 78%
    13:00 +10°C° 0.1 mm 5 mps 703 mmHg 76%
    14:00 +10°C° 0 mm 5 mps 703 mmHg 75%
    15:00 +11°C° 0 mm 4 mps 704 mmHg 74%
    16:00 +11°C° 0 mm 4 mps 704 mmHg 73%
    17:00 +10°C° 0.1 mm 3 mps 704 mmHg 78%
    18:00 +9°C° 0.1 mm 2 mps 704 mmHg 83%
    19:00 +9°C° 0.1 mm 2 mps 704 mmHg 88%
    20:00 +8°C° 0 mm 2 mps 704 mmHg 90%
    21:00 +8°C° 0 mm 2 mps 704 mmHg 91%
    22:00 +7°C° 0 mm 2 mps 704 mmHg 92%
    23:00 +7°C° 0 mm 2 mps 704 mmHg 93%

    Day after tomorrow, 20 September, Thursday

    Time Temperature Precipitation Wind Pressure Humidity
    00:00 +7°C° 0 mm 1 mps 704 mmHg 94%
    01:00 +6°C° 0 mm 1 mps 704 mmHg 94%
    02:00 +6°C° 0 mm 1 mps 704 mmHg 95%
    03:00 +5°C° 0 mm 2 mps 704 mmHg 95%
    04:00 +5°C° 0 mm 2 mps 705 mmHg 95%
    05:00 +5°C° 0 mm 2 mps 705 mmHg 94%
    06:00 +6°C° 0 mm 2 mps 705 mmHg 92%
    07:00 +6°C° 0 mm 2 mps 705 mmHg 91%
    08:00 +7°C° 0 mm 3 mps 705 mmHg 86%
    09:00 +8°C° 0 mm 3 mps 705 mmHg 81%
    10:00 +9°C° 0 mm 3 mps 706 mmHg 76%
    11:00 +9°C° 0 mm 3 mps 706 mmHg 77%
    12:00 +10°C° 0 mm 4 mps 706 mmHg 77%
    13:00 +10°C° 0 mm 4 mps 706 mmHg 77%
    14:00 +8°C° 0.2 mm 4 mps 706 mmHg 79%
    15:00 +8°C° 0.2 mm 4 mps 706 mmHg 81%
    16:00 +7°C° 0.2 mm 4 mps 706 mmHg 83%
    17:00 +7°C° 0.2 mm 4 mps 706 mmHg 85%
    18:00 +6°C° 0.2 mm 4 mps 707 mmHg 87%
    19:00 +6°C° 0.2 mm 4 mps 707 mmHg 89%
    20:00 +6°C° 0 mm 4 mps 707 mmHg 89%
    21:00 +6°C° 0 mm 4 mps 707 mmHg 89%
    22:00 +6°C° 0 mm 4 mps 707 mmHg 89%
    23:00 +6°C° 0 mm 4 mps 707 mmHg 89%

    21 September, Friday

    Time Temperature Precipitation Wind Pressure Humidity
    00:00 +6°C° 0 mm 4 mps 706 mmHg 89%
    01:00 +5°C° 0 mm 4 mps 706 mmHg 89%
    02:00 +5°C° 0 mm 3 mps 706 mmHg 89%
    03:00 +5°C° 0 mm 3 mps 707 mmHg 89%
    04:00 +5°C° 0 mm 3 mps 707 mmHg 89%
    05:00 +5°C° 0.1 mm 4 mps 707 mmHg 89%
    06:00 +5°C° 0.1 mm 4 mps 707 mmHg 89%
    07:00 +5°C° 0.1 mm 4 mps 707 mmHg 88%
    08:00 +6°C° 0.1 mm 4 mps 707 mmHg 86%
    09:00 +6°C° 0.1 mm 4 mps 708 mmHg 85%
    10:00 +7°C° 0.1 mm 4 mps 708 mmHg 83%
    11:00 +7°C° 0 mm 4 mps 708 mmHg 80%
    12:00 +8°C° 0 mm 4 mps 708 mmHg 77%
    13:00 +10°C° 0 mm 4 mps 709 mmHg 74%
    14:00 +10°C° 0 mm 4 mps 709 mmHg 75%
    15:00 +10°C° 0 mm 4 mps 709 mmHg 75%
    16:00 +8°C° 0 mm 4 mps 709 mmHg 76%
    17:00 +8°C° 0 mm 4 mps 710 mmHg 80%
    18:00 +8°C° 0 mm 3 mps 710 mmHg 85%
    19:00 +7°C° 0 mm 3 mps 710 mmHg 89%
    20:00 +7°C° 0 mm 3 mps 711 mmHg 90%
    21:00 +7°C° 0 mm 3 mps 711 mmHg 90%
    22:00 +7°C° 0 mm 3 mps 711 mmHg 91%
    23:00 +7°C° 0 mm 2 mps 711 mmHg 91%

    22 September, Saturday

    Time Temperature Precipitation Wind Pressure Humidity
    00:00 +7°C° 0 mm 2 mps 711 mmHg 92%
    01:00 +7°C° 0 mm 2 mps 712 mmHg 92%
    02:00 +7°C° 0 mm 2 mps 712 mmHg 92%
    03:00 +7°C° 0 mm 2 mps 712 mmHg 93%
    04:00 +6°C° 0 mm 2 mps 712 mmHg 93%
    05:00 +7°C° 0 mm 2 mps 713 mmHg 93%
    06:00 +7°C° 0 mm 2 mps 713 mmHg 92%
    07:00 +7°C° 0 mm 2 mps 714 mmHg 92%
    08:00 +8°C° 0 mm 2 mps 714 mmHg 86%
    09:00 +9°C° 0 mm 3 mps 714 mmHg 79%
    10:00 +10°C° 0 mm 3 mps 714 mmHg 73%
    11:00 +11°C° 0 mm 3 mps 714 mmHg 72%
    12:00 +11°C° 0 mm 3 mps 714 mmHg 70%
    13:00 +12°C° 0 mm 3 mps 714 mmHg 69%
    14:00 +12°C° 0 mm 3 mps 714 mmHg 68%
    15:00 +12°C° 0 mm 4 mps 714 mmHg 68%
    16:00 +12°C° 0 mm 4 mps 714 mmHg 68%
    17:00 +10°C° 0 mm 3 mps 714 mmHg 75%
    18:00 +8°C° 0 mm 3 mps 714 mmHg 82%
    19:00 +7°C° 0 mm 2 mps 714 mmHg 89%
    20:00 +6°C° 0 mm 2 mps 715 mmHg 90%
    21:00 +6°C° 0 mm 2 mps 715 mmHg 92%
    22:00 +5°C° 0 mm 2 mps 715 mmHg 93%
    23:00 +5°C° 0 mm 2 mps 714 mmHg 93%

    23 September, Sunday

    Time Temperature Precipitation Wind Pressure Humidity
    00:00 +5°C° 0 mm 2 mps 714 mmHg 94%
    01:00 +5°C° 0 mm 2 mps 714 mmHg 94%
    02:00 +5°C° 0 mm 2 mps 714 mmHg 94%
    03:00 +4°C° 0 mm 2 mps 714 mmHg 94%
    04:00 +4°C° 0 mm 2 mps 714 mmHg 94%
    05:00 +4°C° 0 mm 2 mps 714 mmHg 93%
    06:00 +4°C° 0 mm 2 mps 714 mmHg 91%
    07:00 +4°C° 0 mm 2 mps 715 mmHg 90%
    08:00 +7°C° 0 mm 2 mps 715 mmHg 82%
    09:00 +9°C° 0 mm 2 mps 715 mmHg 73%
    10:00 +11°C° 0 mm 3 mps 715 mmHg 64%
    11:00 +12°C° 0 mm 3 mps 714 mmHg 60%
    12:00 +13°C° 0 mm 3 mps 714 mmHg 57%
    13:00 +16°C° 0 mm 3 mps 714 mmHg 53%
    14:00 +14°C° 0 mm 3 mps 714 mmHg 54%
    15:00 +14°C° 0 mm 3 mps 715 mmHg 56%
    16:00 +14°C° 0 mm 3 mps 715 mmHg 58%
    17:00 +12°C° 0 mm 3 mps 715 mmHg 66%
    18:00 +10°C° 0 mm 2 mps 715 mmHg 73%
    19:00 +9°C° 0 mm 2 mps 715 mmHg 81%
    20:00 +8°C° 0 mm 2 mps 715 mmHg 83%
    21:00 +8°C° 0 mm 2 mps 715 mmHg 86%
    22:00 +8°C° 0 mm 1 mps 715 mmHg 89%
    23:00 +7°C° 0 mm 1 mps 715 mmHg 90%
    Show more